#timestamp,LO_Frequency,Hit,StdDev 
1569942015.5,286046995.0,Y
1569942035.3,286046996.6,P
1569942055.1,286047000.8,N
1569942075.9,286047000.4,N
1569942095.7,286046998.9,N
1569942115.6,286046996.6,N
1569942135.4,286046999.6,N
1569942155.2,286046998.3,N
1569942175.1,286046998.2,N
1569942176.0,286046998.2,N
1569942195.8,286047000.6,N
1569942215.6,286047000.9,N
1569942235.5,286046998.8,N
1569942255.3,286046997.5,N
1569942275.2,286046996.7,N
1569942295.9,286046998.6,N
1569942315.7,286046998.2,N
1569942335.6,286046998.2,N
1569942355.4,286046997.7,N
1569942375.2,286046995.2,Y
1569942395.1,286046996.9,P
1569942396.0,286046996.9,P
1569942415.8,286046997.7,P
1569942435.7,286046994.9,Y
1569942455.5,286046997.7,P
1569942475.3,286046998.9,P
1569942495.2,286046999.3,N
1569942515.9,286046996.9,Y
1569942535.7,286046998.4,P
1569942555.6,286046998.4,P
1569942575.4,286046996.6,P
1569942595.3,286046997.3,Y
1569942615.1,286046998.9,P
1569942616.0,286046998.9,N
1569942635.8,286047000.9,N
1569942655.7,286047001.0,N
1569942675.5,286047001.1,N
1569942695.3,286047000.8,N
1569942715.2,286046999.3,N
1569942735.0,286046998.8,N
1569942735.9,286046998.8,N
1569942755.8,286046998.7,N
1569942805.6,286047000.5,E
1569942815.5,286046998.1,N
1569942835.4,286046998.6,P
1569942855.2,286046999.2,P
1569942875.1,286046999.4,N
1569942876.0,286046999.4,N
1569942895.8,286046999.2,N
1569942915.6,286046996.5,Y
1569942935.5,286046998.9,P
1569942955.3,286046996.5,P
1569942975.1,286046997.3,N
1569942995.9,286046997.7,N
1569943015.7,286046997.5,N
1569943035.6,286046997.5,N
1569943055.4,286046994.9,Y
1569943075.2,286046996.9,P
1569943095.1,286047001.1,N
1569943096.0,286047001.1,N
1569943115.8,286046998.6,N
1569943135.7,286046998.3,N
1569943155.5,286046998.4,N
1569943175.3,286046999.8,N
1569943195.2,286047000.2,N
1569943215.0,286046999.6,N
1569943215.9,286046999.6,N
1569943235.7,286046998.7,N
1569943255.6,286046998.4,N
1569943275.4,286046998.4,N
1569943295.3,286046998.1,N
1569943315.1,286047002.1,N
1569943335.8,286047002.1,N
1569943355.7,286046999.8,N
1569943375.5,286047000.1,N
1569943395.4,286047000.3,N
1569943415.2,286046999.9,N
1569943435.0,286047004.1,N
1569943435.9,286047004.1,N
1569943455.8,286047002.2,N
1569943475.6,286047001.0,N
1569943495.4,286046999.6,N
1569943515.3,286046998.0,N
1569943535.1,286046994.9,N
1569943555.9,286046997.8,N
1569943575.7,286046996.7,N
1569943595.5,286046997.1,N
1569943615.4,286046999.5,N
1569943635.2,286046999.4,N
1569943655.0,286047000.9,N
1569943655.9,286047000.9,N
1569943675.8,286047001.2,N
1569943695.6,286046998.4,N
1569943715.5,286047000.8,N
1569943735.3,286046998.8,N
1569943755.1,286046998.4,N
1569943775.9,286046998.3,N
1569943795.7,286047000.4,N
1569943815.5,286047001.1,N
1569943835.4,286047001.2,N
1569943855.2,286046998.1,N
1569943875.1,286047000.7,N
1569943876.0,286047000.7,N
1569943895.8,286046998.8,N
1569943915.6,286047001.1,N
1569943935.5,286047000.6,N
1569943955.3,286046998.7,N
1569943975.2,286046999.3,N
1569943995.9,286046996.8,N
1569944015.7,286046998.9,N
1569944035.6,286046998.2,N
1569944055.4,286046998.8,N
1569944075.2,286046998.3,N
1569944095.1,286047000.9,N
1569944096.0,286047000.9,N
1569944115.8,286047001.1,N
1569944135.7,286046999.9,N
1569944155.5,286046999.8,N
1569944175.3,286047000.7,N
1569944195.2,286047000.3,N
1569944215.9,286047001.1,N
1569944235.7,286046998.2,N
1569944255.6,286046999.8,N
1569944275.4,286047002.4,N
1569944295.3,286047000.2,N
1569944315.1,286047002.7,N
1569944316.0,286047002.7,N
1569944335.8,286047002.6,N
1569944355.7,286047001.3,N
1569944375.5,286047002.0,N
1569944395.3,286047003.9,N
1569944415.2,286047001.7,N
1569944435.0,286047002.8,N
1569944435.9,286047002.8,N
1569944455.8,286047000.5,N
1569944475.6,286047000.1,N
1569944495.4,286047002.1,N
1569944515.3,286047004.1,N
1569944535.1,286047004.0,N
1569944555.8,286047004.2,N
1569944575.7,286047004.0,N
1569944595.5,286047001.6,N
1569944615.3,286047004.4,N
1569944635.2,286047004.1,N
1569944655.0,286047004.2,N
1569944655.9,286047004.2,N
1569944675.8,286047002.9,N
1569944695.6,286047003.1,N
1569944715.4,286047005.8,Y
1569944735.3,286047001.4,P
1569944755.1,286047002.1,P
1569944775.9,286047001.3,P
1569944795.7,286047004.3,Y
1569944815.5,286047002.5,P
1569944835.4,286047004.0,P
1569944855.2,286047001.9,N
1569944875.0,286046999.7,N
1569944875.9,286046999.7,N
1569944895.8,286047002.2,N
1569944915.6,286047002.9,N
1569944935.5,286047003.0,N
1569944955.3,286047003.4,N
1569944975.1,286047003.5,N
1569944995.9,286047003.5,N
1569945015.7,286047004.0,N
1569945035.5,286047003.4,N
1569945055.4,286047004.3,Y
1569945075.2,286046999.8,P
1569945095.0,286047002.4,N
1569945095.9,286047002.4,N
1569945115.8,286047002.2,N
1569945135.6,286047004.3,Y
1569945155.5,286047000.3,P
1569945175.3,286047002.4,P
1569945195.1,286047003.7,P
1569945215.9,286047001.9,N
1569945235.7,286047002.6,N
1569945255.6,286047003.5,Y
1569945275.4,286047002.7,P
1569945295.2,286047001.5,P
1569945315.1,286047001.7,P
1569945316.0,286047001.7,Y
1569945335.8,286047000.2,P
1569945355.6,286047000.3,N
1569945375.5,286047002.8,P
1569945395.3,286047000.2,N
1569945415.2,286047000.4,N
1569945435.9,286047000.2,N
1569945455.7,286047001.0,N
1569945475.6,286046999.7,N
1569945495.4,286047004.2,Y
1569945515.2,286047001.8,P
1569945535.1,286047002.6,P
1569945536.0,286047002.6,P
1569945555.8,286047002.5,Y
1569945575.7,286046998.6,P
1569945595.5,286046998.6,N
